User: anonymous   Login
Location: Unspecified
(0.0000°N, 0.0000°E)
Time: 23:43:53
(UTC+00:00)
Language:

Tiros 1 despin weight - Orbit

View from above orbital plane
View from above orbital plane
View from above satellite
View from above satellite

Ground track
Ground track

The orbit data is extracted from the following two-line orbital elements,

1 00115U 60002D   14325.50151689  .00004108  00000-0  54384-3 0  5160
2 00115 048.1660 330.0545 0036650 288.3734 209.8592 14.81180021910954
Epoch (UTC): 21 November 2014 12:02:11
Eccentricity: 0.0036650
inclination: 48.1660°
perigee height: 600 km
apogee height: 651 km
right ascension of ascending node: 330.0545°
argument of perigee: 288.3734°
revolutions per day: 14.81180021
mean anomaly at epoch: 209.8592°
orbit number at epoch: 91095

The dashed part of the orbit path shows where the satellite is in the earth's shadow,  

DLR